Home   Weather   Waidhofen an der Ybbs   Past weeks

Flag for Austria Past Weather in Waidhofen an der Ybbs, Lower Austria, Austria — Yesterday and Last 2 Weeks

Now
58 °F

Refreshingly cool.


Feels Like: 57 °F
Forecast: 38 / 64 °F
Wind: 6 mph from East

Location: Amstetten

Current Time: Apr 30, 2017 at 1:10:42 pm

Latest Report: Apr 30, 2017 at 12:00 pm


Visibility: N/A

Pressure: 30.00 "Hg

Humidity: 50%

Dew Point: 39 °F

Location of Waidhofen an der YbbsLocation

Past Weather in Waidhofen an der Ybbs — Graph

°F

Waidhofen an der Ybbs Temperature Yesterday

Maximum temperature yesterday: 53 °F (at 2:00 pm)
Minimum temperature yesterday: 38 °F (at 11:00 pm)
Average temperature yesterday: 44 °F

High & Low Weather Summary for the Past Weeks

 TemperatureHumidityPressure
High68 °F (Apr 25, 4:00 pm)100% (Apr 25, 3:00 am)30.55 "Hg (Apr 25, 3:00 am)
Low30 °F (Apr 24, 6:00 am)43% (Apr 24, 3:00 pm)29.66 "Hg (Apr 25, 5:00 pm)
Average44 °F79%30.08 "Hg
* Reported Apr 15 11:00 am — Apr 30 11:00 am, Waidhofen an der Ybbs, Weather by CustomWeather, © 2017

Note: Actual official high and low records may vary slightly from our data, if they occured in-between our weather recording intervals... More about our weather records

Advertising

Waidhofen an der Ybbs Weather History for the Previous 24 Hours

Scroll right to see more
 ConditionsComfort  
Time TempWeatherWind HumidityBarometerVisibility
11:00 am
Sun, Apr 30
54 °FCool.6 mph53%30.02 "HgN/A
10:00 am50 °FCool.5 mph70%30.05 "HgN/A
9:00 am45 °FQuite cool.3 mph78%30.08 "HgN/A
8:00 am38 °FChilly.3 mph94%30.10 "HgN/A
7:00 am33 °FChilly.1 mph100%30.12 "HgN/A
6:00 am30 °FChilly.1 mph99%30.12 "HgN/A
5:00 am32 °FChilly.1 mph100%30.11 "HgN/A
4:00 am31 °FChilly.1 mph100%30.12 "HgN/A
3:00 am32 °FChilly.No wind100%30.12 "HgN/A
2:00 am34 °FChilly.1 mph100%30.12 "HgN/A
1:00 am35 °FChilly.No wind100%30.13 "HgN/A
12:00 am36 °FChilly.No wind99%30.12 "HgN/A
11:00 pm
Sat, Apr 29
38 °FChilly.1 mph95%30.11 "HgN/A
10:00 pm40 °FQuite cool.No wind92%30.11 "HgN/A
9:00 pm44 °FQuite cool.1 mph81%30.09 "HgN/A
8:00 pm48 °FCool.1 mph69%30.08 "HgN/A
7:00 pm51 °FCool.2 mph61%30.06 "HgN/A
6:00 pm51 °FCool.3 mph63%30.07 "HgN/A
5:00 pm51 °FCool.5 mph63%30.07 "HgN/A
4:00 pm52 °FCool.6 mph65%30.07 "HgN/A
3:00 pm51 °FCool.2 mph62%30.08 "HgN/A
2:00 pm53 °FCool.2 mph61%30.09 "HgN/A
1:00 pm51 °FCool.2 mph66%30.10 "HgN/A
Weather by CustomWeather, © 2017

See weather overviewHow to use our weather pages